Wind_Speed
98 98 98 98 97 97 97 96 96 95 95 96 96 97 97 98 99 100 101 102 102 103 104 105 106 106 106 107 107 108 109 109 110 110 111 111 112 112 112 113 113 113 114 114 114 114 115 115 116 116 117 118 118 119 120 120 120 120 120 119 119 117 116 114 111 109 106 102 99 95 92 89 87 85 83 82 80 78 76 75 73 71 70 69 68 66
99 99 99 98 98 97 97 97 97 97 97 98 99 99 100 100 101 102 103 103 104 105 106 107 108 108 109 110 110 111 112 113 113 114 115 115 115 116 116 116 116 117 117 117 117 118 118 119 119 119 120 120 120 120 120 119 119 117 116 114 112 110 107 105 102 99 96 93 90 88 86 84 82 81 79 78 76 74 73 72 70 69 68 67 66 64
99 99 99 99 99 99 99 100 101 102 102 103 104 105 105 106 107 107 108 108 109 110 110 111 112 113 114 115 116 116 117 118 118 118 119 119 119 118 118 118 118 118 119 119 119 119 120 120 120 120 119 119 118 116 115 113 111 109 106 104 102 99 96 94 92 89 88 86 84 83 81 80 78 77 76 74 73 72 71 70 68 67 66 65 64 63
101 101 101 102 102 103 104 106 107 108 108 109 109 110 110 111 112 112 113 114 115 116 117 118 118 119 120 121 121 121 121 121 121 120 120 120 120 119 119 119 118 118 118 118 118 117 117 116 115 114 112 110 108 106 103 101 99 97 95 93 91 89 87 86 85 84 83 82 80 79 78 76 75 74 73 72 71 70 69 68 67 66 65 64 62 61
104 105 106 107 108 109 110 111 112 113 113 114 114 114 115 115 116 118 119 120 121 121 122 122 121 121 121 120 120 119 119 118 117 117 117 117 117 116 116 115 115 114 113 112 111 110 108 106 104 101 99 97 95 93 91 90 88 87 86 85 84 83 82 82 81 80 79 78 77 76 75 74 73 71 70 69 68 68 67 66 65 64 63 62 61 60
109 110 111 112 113 114 115 116 116 117 118 118 119 119 120 121 122 123 123 123 123 122 121 119 118 116 115 114 113 112 112 111 111 111 111 111 110 110 109 108 107 105 104 102 100 97 96 93 91 90 88 87 86 85 84 83 82 82 81 81 80 80 79 78 78 77 76 75 75 73 72 71 70 69 68 67 67 66 65 65 64 63 62 61 59 58
114 115 116 116 117 118 119 120 120 121 122 123 123 124 125 125 125 124 123 121 120 118 116 114 112 110 108 107 106 106 105 104 104 104 103 102 101 101 99 98 96 94 93 91 89 88 86 85 84 83 82 81 81 80 80 79 79 79 78 78 77 77 76 76 75 74 74 73 72 71 70 69 68 67 66 65 65 64 64 63 62 61 60 59 58 57
118 119 120 120 121 122 123 124 124 125 126 126 126 126 126 125 123 121 119 117 115 113 111 109 107 105 104 102 102 101 100 99 98 98 97 96 95 93 92 91 89 88 87 85 84 83 82 81 81 80 79 79 78 77 77 77 76 76 76 75 75 74 74 73 73 72 72 71 70 70 69 68 67 66 65 64 63 63 62 62 61 60 59 58 57 56
122 123 124 124 125 125 126 127 127 127 127 126 125 124 122 121 119 117 115 113 111 108 106 105 103 102 100 99 98 98 97 96 96 95 94 93 92 90 89 88 87 85 84 83 82 82 81 80 79 78 77 77 76 75 75 75 74 74 74 73 73 72 72 72 71 71 70 70 69 68 67 66 65 64 63 63 62 61 61 60 60 59 58 56 55 54
126 126 126 127 127 127 126 126 126 126 125 123 121 120 118 116 115 113 111 110 108 105 103 102 101 100 99 98 97 97 96 96 95 94 93 93 92 90 89 88 86 85 84 83 82 81 80 79 78 77 76 75 74 74 73 73 73 72 72 72 71 71 71 70 70 69 69 68 67 67 66 65 64 63 62 61 61 60 59 59 58 58 56 55 54 53
128 128 128 127 126 126 125 124 123 122 121 119 117 116 114 113 112 111 109 108 106 104 102 100 99 98 98 98 97 97 97 96 96 95 94 93 92 91 90 88 87 85 84 83 82 81 79 78 77 75 75 74 73 73 72 72 72 72 71 71 70 70 70 69 69 68 68 67 66 65 64 63 63 62 61 60 60 59 58 58 57 56 55 54 53 52
128 127 126 125 124 123 122 120 119 118 117 116 115 114 112 111 109 108 107 106 104 102 101 99 98 97 97 97 97 97 97 97 97 97 96 95 94 92 91 90 88 86 85 84 82 81 79 78 76 75 74 73 73 72 72 72 71 71 71 70 70 69 69 68 68 67 67 66 65 64 63 63 62 61 60 59 58 58 57 56 56 55 54 53 52 50
125 124 123 122 120 119 118 117 116 115 114 113 113 112 111 109 107 106 105 104 103 101 100 99 98 97 97 97 97 98 98 98 98 98 97 96 95 94 93 91 90 88 86 85 83 81 79 78 76 75 74 74 73 72 72 72 71 71 70 70 69 69 68 68 67 66 65 65 64 63 62 61 61 60 59 58 57 57 56 56 55 54 53 52 50 49
122 120 119 118 117 115 115 114 113 113 112 112 111 110 109 107 106 104 103 102 101 100 99 98 98 97 97 97 97 98 98 99 99 99 98 98 97 95 94 93 91 90 88 86 84 82 80 78 77 76 75 74 74 73 73 72 71 71 70 69 69 68 67 67 66 65 64 63 62 62 61 60 60 59 58 57 56 56 55 55 54 53 52 51 49 48
118 117 115 115 114 113 112 112 111 111 111 110 109 108 107 105 104 103 103 102 101 100 99 98 98 98 97 97 98 98 98 99 100 100 100 99 98 97 96 95 93 91 89 87 85 83 81 79 78 77 76 75 74 74 73 73 72 71 70 69 68 67 67 66 65 64 63 62 61 61 60 59 59 58 57 56 55 55 54 54 53 52 51 50 48 47
115 114 113 112 112 112 111 110 110 109 109 108 107 106 105 105 104 103 102 102 101 100 100 99 99 99 98 98 98 98 99 100 100 101 100 100 99 98 97 96 95 93 90 88 86 84 82 80 79 78 77 76 75 75 74 73 72 71 70 69 68 67 66 65 64 63 62 61 60 60 59 58 58 57 56 55 55 54 53 53 52 51 50 48 47 45
112 112 111 111 111 110 109 109 108 108 107 107 106 105 105 104 104 103 103 103 102 101 101 100 100 99 100 99 99 99 99 100 101 101 101 101 100 99 98 97 96 94 92 90 87 85 83 82 80 79 77 77 76 75 74 73 72 71 70 69 68 66 65 64 63 62 61 60 59 59 58 58 57 56 55 54 54 53 52 52 51 50 49 47 46 44
111 110 110 110 109 109 108 107 107 107 106 106 106 106 105 105 104 104 104 103 103 103 102 102 101 100 100 101 101 100 100 100 101 102 102 102 101 100 98 97 97 95 93 91 89 86 84 83 81 79 78 77 77 76 75 73 72 71 70 68 67 66 65 63 62 61 60 59 58 58 57 57 56 55 54 53 53 52 52 51 50 49 48 46 44 42
109 109 109 108 108 108 107 107 107 106 106 106 106 106 106 106 105 105 105 105 104 104 104 103 102 102 101 101 101 101 101 101 101 102 102 103 102 100 99 98 97 96 94 92 89 87 85 83 81 80 79 78 77 76 75 73 72 71 69 68 67 65 64 62 61 60 59 58 58 57 56 56 55 54 53 53 52 51 51 50 49 48 46 45 43 41
108 108 108 108 108 107 107 107 107 107 107 107 107 107 107 107 107 106 106 106 106 105 105 104 104 103 103 103 102 102 102 102 102 102 103 103 102 101 99 98 97 96 94 92 89 87 85 83 82 80 79 78 77 76 74 73 72 70 69 67 66 64 63 61 60 59 58 57 57 56 55 55 54 53 52 52 51 50 50 49 48 46 45 43 41 40
108 108 108 108 108 108 108 108 108 108 108 108 108 108 108 108 108 108 108 108 107 107 106 106 105 104 104 103 103 103 103 102 102 103 103 103 103 101 99 98 97 96 94 92 89 87 85 84 82 80 79 77 76 75 74 72 71 70 68 67 65 63 62 60 59 58 57 56 56 55 54 54 53 52 51 51 50 50 49 48 47 45 44 42 40 38
108 108 108 108 108 109 109 109 109 109 109 109 109 109 109 110 110 110 109 109 108 108 108 107 106 105 105 104 104 104 103 103 103 103 103 103 103 101 99 98 97 96 94 92 89 87 85 83 82 80 78 77 76 74 73 71 70 69 67 66 64 62 61 59 58 57 56 55 55 54 54 53 52 51 51 50 49 49 48 47 45 44 42 40 39 37
109 109 110 110 110 110 110 110 110 110 110 110 110 111 111 111 111 111 111 110 110 109 109 108 107 107 106 105 105 104 103 103 102 102 102 102 102 101 99 97 96 95 94 91 89 87 85 83 81 79 78 76 75 73 72 70 69 68 66 64 63 61 59 58 57 56 55 54 54 53 53 52 51 50 50 49 48 48 47 45 44 42 41 39 38 36
110 111 111 111 111 111 112 112 112 112 112 112 112 112 112 112 112 112 112 111 111 110 110 109 108 108 107 106 105 104 103 102 102 101 101 101 101 100 98 97 95 94 92 90 88 86 84 82 80 78 77 75 74 72 71 69 68 67 65 63 61 60 58 57 56 55 54 54 53 53 52 51 50 49 49 48 47 46 45 44 43 41 39 38 36 35
112 112 113 113 113 113 113 113 113 113 113 113 114 114 114 114 114 113 113 112 112 111 110 110 109 108 107 106 105 104 103 102 101 100 99 99 99 98 97 95 94 93 91 89 87 85 83 81 79 77 76 74 72 71 69 68 67 65 64 62 60 59 57 56 55 54 53 53 52 52 51 50 49 48 48 47 46 45 44 43 41 40 38 37 35 34
114 114 115 115 115 115 115 115 115 115 115 115 115 115 115 115 114 114 114 113 112 112 111 110 109 108 107 105 104 103 102 101 99 98 98 97 97 97 96 94 92 91 90 88 86 83 82 80 78 76 74 73 71 70 68 67 66 64 62 60 59 57 56 55 54 53 52 52 51 51 50 49 48 48 47 46 45 44 43 41 40 38 37 36 35 33
116 116 116 117 116 116 116 116 116 116 116 116 116 116 116 115 115 115 114 113 113 112 111 110 108 107 106 104 103 102 101 100 98 97 96 95 95 95 94 92 91 89 88 86 84 82 80 78 77 75 73 71 70 68 67 66 64 62 61 59 57 56 55 54 53 52 52 51 50 50 49 48 47 47 46 45 44 42 41 40 38 37 36 35 34 33
118 118 118 118 118 118 118 118 118 117 117 117 117 116 116 115 115 115 114 113 112 111 110 109 108 106 105 103 102 101 100 98 97 96 94 94 93 93 92 90 89 87 86 84 82 80 78 77 75 73 72 70 69 67 66 64 62 61 59 57 56 55 53 53 52 51 51 50 50 49 48 47 46 45 44 43 42 41 40 39 37 36 35 34 33 32
120 120 120 119 119 119 119 119 118 118 118 118 117 117 116 115 115 114 114 113 112 111 110 108 107 105 104 102 101 100 99 97 96 94 93 92 92 91 90 88 87 85 84 82 80 78 77 75 74 72 70 69 67 66 64 63 61 59 57 56 55 53 52 51 51 50 50 49 49 48 47 46 45 44 43 42 41 40 38 37 36 35 34 33 32 32
121 121 121 121 120 120 120 119 119 119 118 118 117 117 116 115 114 114 113 112 111 110 109 108 106 105 103 101 100 99 97 96 94 92 91 90 90 89 88 86 85 83 81 80 78 77 76 74 72 70 69 67 66 64 63 61 59 57 56 55 53 52 51 50 50 49 49 48 48 47 46 45 44 43 42 41 39 38 37 36 35 34 33 32 32 31
123 122 122 122 121 121 120 120 119 119 118 118 117 117 116 115 114 113 112 111 110 110 109 107 106 104 102 100 99 97 97 95 93 91 89 88 88 87 86 84 83 81 79 77 76 75 74 73 71 69 67 66 65 63 61 60 58 56 55 53 52 51 50 49 49 49 48 48 47 46 45 44 43 42 41 39 38 37 36 35 34 33 33 32 31 30
124 123 123 122 122 121 121 120 119 119 118 118 117 116 115 114 113 113 112 111 110 109 108 107 105 103 101 99 97 96 95 93 91 89 87 86 86 85 83 82 81 79 77 76 74 73 72 71 70 68 66 65 63 62 60 58 56 55 53 52 51 50 49 49 48 48 47 47 46 45 44 43 42 41 39 38 37 36 35 34 33 32 32 31 30 30
124 123 123 122 122 121 120 120 119 118 118 117 116 115 114 113 112 111 111 109 109 108 107 105 104 102 99 97 96 95 93 92 90 88 86 84 84 83 81 80 78 77 75 74 73 71 70 70 68 67 65 63 62 60 58 57 55 53 52 51 50 49 48 48 47 47 46 46 45 44 43 42 41 39 38 37 36 35 34 33 33 32 31 30 30 29
124 123 122 122 121 121 120 119 119 118 117 116 115 114 113 112 111 110 109 108 108 107 106 104 102 100 98 96 95 93 91 90 88 86 84 82 81 80 79 78 76 75 74 72 71 70 69 68 67 65 64 62 60 58 57 55 53 52 50 49 49 48 47 47 47 46 45 45 44 43 42 40 39 38 37 36 35 34 33 33 32 31 30 30 29 29
123 122 121 121 120 120 119 119 118 117 116 115 114 113 112 111 110 109 108 107 106 105 104 103 101 99 97 95 93 91 90 88 86 84 82 80 79 78 77 76 74 73 72 71 69 68 67 66 65 64 63 61 59 57 55 53 52 50 49 48 48 47 47 46 46 45 44 43 42 41 40 39 38 37 36 35 34 33 33 32 31 31 30 29 29 29
121 121 120 119 119 119 118 117 117 115 114 113 112 111 110 109 108 107 106 106 105 104 103 101 100 97 95 93 91 89 88 86 84 82 80 78 77 76 75 74 73 71 70 69 68 67 66 65 64 62 61 59 58 56 53 51 50 49 48 47 47 46 46 45 45 44 43 42 41 40 39 38 37 36 35 34 33 33 32 31 31 30 30 29 29 29
119 119 118 118 118 117 117 116 115 114 113 111 110 109 108 107 106 105 104 104 103 102 101 100 98 96 93 90 88 87 85 84 82 80 78 76 75 74 73 72 71 70 68 67 66 65 64 63 62 61 59 58 56 54 52 50 48 47 47 46 46 45 45 44 44 43 42 41 40 39 38 37 36 35 34 33 33 32 32 31 30 30 29 29 29 29
117 116 116 116 116 116 115 114 113 112 110 109 108 106 105 104 104 103 103 102 101 101 100 99 97 94 90 88 86 84 83 81 79 78 76 74 73 72 71 70 69 68 67 66 64 63 63 62 60 59 57 56 54 52 50 48 47 46 46 45 45 44 44 43 42 42 41 40 39 38 37 36 35 34 33 33 32 32 31 30 30 30 29 29 29 29
114 114 115 115 114 114 113 112 111 109 107 106 105 104 103 102 102 101 101 100 100 99 98 97 94 91 87 85 83 82 80 79 77 75 74 72 71 70 69 68 67 66 65 64 62 62 61 60 58 57 55 54 52 50 48 47 46 45 45 44 44 43 43 42 41 41 40 39 38 37 36 35 34 33 33 32 32 31 30 30 30 29 29 29 29 29
112 112 112 112 112 111 110 109 108 106 104 103 102 101 101 100 100 99 99 98 97 97 96 94 91 87 84 82 80 79 78 76 74 73 71 70 69 68 67 66 65 64 63 62 61 60 59 58 56 55 53 51 49 48 46 45 45 45 44 44 43 43 42 41 40 40 39 38 37 36 35 34 33 33 32 31 31 30 30 30 29 29 29 29 29 29
109 109 110 109 109 108 107 105 103 102 101 100 99 99 98 98 97 97 96 95 95 94 92 90 87 84 81 79 78 76 75 73 72 70 69 68 67 66 65 65 64 63 61 60 59 58 57 55 54 52 51 49 47 46 45 44 44 44 43 43 42 42 41 40 39 39 38 37 36 35 34 33 33 32 31 31 30 30 30 29 29 29 29 29 29 29
105 105 105 105 104 103 102 100 99 98 97 96 96 96 96 95 94 94 93 93 92 90 88 86 83 80 78 77 75 73 72 71 69 68 67 66 65 64 64 63 62 61 59 58 57 56 55 53 52 50 48 47 45 44 44 44 43 43 42 42 41 40 40 39 38 38 37 36 35 34 34 33 32 31 31 30 30 30 29 29 29 29 29 29 29 29
101 101 100 100 99 98 97 96 95 94 93 93 93 93 92 92 91 91 90 89 88 86 84 81 79 77 75 74 72 71 69 68 67 66 65 64 63 62 61 61 60 59 57 56 55 54 52 51 49 48 46 44 43 43 43 43 43 42 41 41 40 39 39 38 38 37 36 35 35 34 33 32 31 31 30 30 29 29 29 29 29 29 29 29 29 29
95 95 94 94 93 92 92 91 90 90 90 90 90 89 89 88 88 87 86 85 83 81 79 77 75 74 72 71 69 68 67 66 65 64 63 62 61 60 59 58 58 57 55 54 53 52 50 49 47 45 44 43 42 42 42 42 42 41 41 40 39 39 38 37 37 36 35 34 34 33 32 32 31 30 30 29 29 29 29 29 29 29 29 29 30 30
89 89 89 88 88 87 87 87 86 86 86 86 86 86 85 84 84 82 81 80 78 76 75 73 72 70 69 68 67 66 65 63 62 61 60 59 59 58 57 56 55 54 53 52 50 49 48 47 45 44 42 41 41 41 41 41 41 40 40 39 38 38 37 36 36 35 34 34 33 32 32 31 30 30 30 29 29 29 29 29 29 30 30 30 30 30
84 84 84 83 83 83 83 83 83 83 83 82 82 82 81 80 79 78 76 75 73 72 71 70 68 67 66 65 64 63 62 61 60 59 58 57 57 56 55 54 53 52 51 49 48 47 46 44 43 42 41 40 41 41 41 41 40 40 39 38 38 37 36 35 35 34 33 33 32 32 31 31 30 30 30 30 29 29 30 30 30 30 30 30 30 31
79 79 79 79 79 79 79 79 79 79 79 79 78 78 77 76 74 73 71 70 69 68 67 66 65 64 63 63 62 61 60 59 58 57 56 55 55 54 53 52 51 50 48 47 46 45 44 42 41 40 40 40 40 40 40 40 39 39 38 37 37 36 35 35 34 33 33 32 32 31 31 30 30 30 30 30 30 30 30 30 30 30 30 30 31 31
75 75 75 75 75 76 76 76 76 75 75 75 74 73 72 71 69 69 68 67 66 65 64 63 62 62 61 60 59 58 58 57 56 55 54 53 53 52 51 50 49 47 46 45 44 43 42 41 40 39 39 40 40 40 40 39 38 38 37 37 36 36 35 34 33 32 32 31 31 31 30 30 30 30 30 30 30 30 30 30 31 31 31 31 31 31
71 71 71 72 72 72 72 72 72 72 71 71 70 69 68 67 66 65 64 64 63 62 61 60 60 59 58 58 57 56 55 54 53 52 52 51 51 50 49 48 47 45 44 43 42 42 41 40 39 39 39 39 39 39 39 38 38 37 37 36 36 35 34 33 32 32 31 31 31 31 30 30 30 30 30 31 31 31 31 31 31 31 31 31 31 31
68 68 69 69 69 69 69 69 68 68 67 67 66 65 64 63 63 62 61 60 59 59 58 58 57 57 56 55 55 54 53 52 51 50 50 50 49 48 47 46 45 44 43 42 41 40 39 39 39 39 39 39 39 39 38 38 37 37 36 35 35 34 33 32 32 31 31 31 31 31 31 31 31 31 31 31 32 32 32 31 31 31 31 31 32 32
65 65 65 66 66 66 65 65 64 64 63 63 62 61 61 60 59 59 58 57 57 56 56 55 55 54 54 53 52 51 50 50 49 49 48 48 47 46 45 44 43 42 42 41 40 39 39 38 38 38 39 39 38 38 38 37 36 36 35 35 34 33 33 32 31 31 30 30 31 31 31 31 31 32 32 32 32 33 32 32 32 32 32 32 32 32
Wind_Direction
285 286 286 286 286 286 286 286 286 286 286 286 286 286 286 286 286 286 286 286 286 286 287 287 287 287 287 288 288 288 288 288 288 288 288 288 289 289 289 289 290 290 290 291 291 291 292 292 292 293 293 293 294 294 294 295 295 295 295 296 296 296 296 297 297 297 298 298 298 299 300 300 301 301 301 302 302 303 303 303 303 303 303 303 303 304
285 285 285 285 285 285 285 285 285 285 285 285 285 285 285 285 285 285 285 285 285 286 286 286 286 287 287 287 287 287 288 288 288 288 288 288 288 288 288 289 289 289 290 290 290 291 291 291 292 292 292 292 293 293 293 293 294 294 294 295 295 295 296 296 296 297 297 298 298 299 300 300 301 301 301 302 302 303 303 303 303 303 303 303 303 303
285 284 284 284 284 284 284 285 285 285 285 285 285 285 285 285 285 285 286 286 286 286 286 286 287 287 287 287 287 288 288 288 288 287 287 287 287 287 287 287 288 288 288 289 289 289 290 290 290 291 291 291 292 292 292 293 293 294 294 294 295 295 295 296 296 297 297 298 298 299 300 300 300 301 301 302 302 302 302 302 302 302 302 302 303 303
284 284 283 283 283 283 283 284 284 284 284 284 284 285 285 285 285 286 286 286 286 286 287 287 287 287 288 288 288 288 288 288 288 288 288 287 287 287 288 288 288 288 288 289 289 289 290 290 291 291 291 292 292 293 293 293 294 294 294 295 295 295 296 296 296 297 297 298 298 299 299 300 300 300 301 301 301 302 302 302 302 302 302 302 302 302
283 282 282 282 282 282 283 283 283 283 284 284 284 284 285 285 286 286 286 286 287 287 287 287 287 287 288 288 288 288 288 287 287 288 288 288 288 288 288 288 289 289 289 289 290 290 291 291 292 292 293 293 293 294 294 294 295 295 295 295 295 296 296 296 296 297 297 298 298 298 299 299 300 300 300 301 301 301 301 301 301 301 301 301 301 301
281 282 282 282 282 282 283 283 283 284 284 285 285 285 286 286 287 287 287 287 288 288 288 288 288 288 288 288 288 288 288 288 288 288 288 288 288 289 289 289 290 290 290 291 291 292 292 293 293 294 294 294 295 295 295 295 295 295 295 295 295 296 296 296 296 297 297 298 298 298 299 299 299 299 300 300 300 300 300 300 300 300 300 301 301 301
282 282 282 282 283 283 284 284 285 285 285 286 287 287 287 288 288 288 288 289 289 289 289 289 289 289 289 289 289 289 289 289 289 289 289 289 290 290 290 291 291 292 292 293 293 294 294 294 295 295 295 295 295 295 295 295 295 295 296 296 296 296 296 296 297 297 297 297 298 298 298 298 299 299 299 299 299 299 299 299 299 299 300 300 300 300
282 282 283 283 284 284 285 285 286 286 287 287 287 288 288 289 289 289 289 289 290 290 290 291 291 291 291 291 291 291 291 291 291 291 291 291 291 292 292 292 293 293 294 294 295 295 295 296 296 296 296 296 296 296 296 296 296 296 296 296 296 296 296 297 297 297 297 297 298 298 298 298 298 299 299 299 298 298 298 298 299 299 299 299 300 300
283 283 284 284 284 285 285 286 286 287 287 288 288 288 289 289 289 290 290 290 291 291 291 292 292 292 292 292 292 292 293 293 293 293 293 293 293 294 294 294 295 295 295 296 296 296 296 296 296 296 296 296 296 296 296 296 296 296 296 296 296 296 297 297 297 297 297 297 297 298 298 298 298 298 298 298 298 298 298 298 298 298 298 299 299 299
284 284 284 285 285 286 286 287 287 288 288 288 289 289 289 290 290 290 291 291 291 292 292 293 293 293 293 294 294 294 294 294 294 294 294 295 295 295 295 296 296 296 296 297 297 297 297 297 297 297 297 297 297 297 297 297 297 297 297 297 297 297 297 297 297 297 297 297 297 298 298 298 298 297 297 297 297 297 297 297 297 297 298 298 298 298
284 285 285 285 286 286 287 287 288 288 288 289 289 289 289 290 290 291 291 292 292 292 293 293 294 294 294 295 295 295 295 295 295 295 296 296 296 296 297 297 297 297 297 297 298 298 298 297 297 298 297 297 297 297 297 297 297 297 297 297 297 297 297 297 297 297 297 297 297 297 297 297 297 297 297 296 296 297 296 296 296 297 297 297 297 297
285 285 285 286 286 286 287 287 288 288 288 289 289 289 290 290 291 291 292 292 292 293 293 294 294 294 295 295 295 295 295 296 296 296 296 297 297 297 297 298 298 298 298 298 298 298 298 298 298 298 298 298 298 298 298 298 298 298 297 297 297 297 297 297 297 297 297 297 297 297 297 296 296 296 296 296 296 296 296 296 296 296 296 296 296 296
285 285 285 286 286 286 287 287 288 288 288 289 289 289 290 290 291 291 291 292 292 293 293 294 294 294 294 295 295 295 295 296 296 296 297 297 297 298 298 298 298 298 298 298 298 298 298 298 299 299 299 299 299 299 299 298 298 298 298 298 297 297 297 297 297 297 297 297 297 296 296 296 295 295 295 295 295 295 295 295 295 295 295 295 295 295
285 285 286 286 286 287 287 287 287 288 288 288 289 289 290 290 291 291 291 292 292 292 293 293 294 294 294 294 294 295 295 295 296 296 296 297 297 298 298 298 298 298 298 299 299 299 299 299 299 299 299 299 299 299 299 299 298 298 298 298 297 297 297 297 297 297 297 296 296 295 295 295 294 294 295 295 295 295 294 294 294 294 294 294 294 294
285 285 286 286 286 287 287 287 287 288 288 288 289 289 289 290 290 291 291 291 292 292 293 293 293 293 294 294 294 294 295 295 295 296 296 296 297 297 298 298 298 298 298 298 298 298 299 299 299 299 299 300 299 299 299 299 298 298 298 297 297 297 297 297 296 296 296 296 295 294 294 294 294 294 294 294 294 294 294 293 293 293 293 293 293 292
285 285 286 286 286 287 287 287 287 287 288 288 288 289 289 289 290 290 291 291 291 292 292 293 293 293 293 293 294 294 294 294 295 295 295 296 296 297 297 297 297 298 298 298 298 298 298 299 299 299 299 299 299 299 299 298 298 298 297 297 297 297 297 296 296 296 295 295 294 294 293 293 293 293 293 293 293 293 293 292 292 292 292 292 291 291
285 285 286 286 286 286 286 287 287 287 287 288 288 288 289 289 289 290 290 291 291 291 292 292 292 293 293 293 293 293 293 294 294 294 295 295 296 296 296 296 297 297 297 297 297 298 298 298 298 299 299 299 299 298 298 298 298 297 297 297 296 296 296 296 296 295 294 294 293 293 292 292 292 292 292 292 292 292 292 291 291 291 291 290 290 289
285 285 285 285 285 286 286 286 286 287 287 287 288 288 288 289 289 289 290 290 290 291 291 292 292 292 292 293 293 293 293 293 293 294 294 294 295 295 295 295 296 296 296 296 297 297 297 298 298 298 298 298 298 298 297 297 297 297 296 296 296 296 296 295 295 294 294 293 292 292 291 291 291 292 292 291 291 291 291 290 290 290 289 289 288 287
284 284 284 285 285 285 285 286 286 286 286 287 287 287 288 288 289 289 289 289 290 290 291 291 292 292 292 292 292 292 292 292 293 293 293 293 294 294 294 294 295 295 295 295 296 296 296 297 297 297 297 297 297 297 297 296 296 296 296 295 295 295 295 295 294 293 293 292 291 291 291 291 291 291 291 290 290 290 289 289 289 288 288 287 286 285
283 284 284 284 284 284 285 285 285 285 286 286 286 287 287 288 288 288 288 289 289 290 290 291 291 291 291 291 291 291 292 292 292 292 292 292 293 293 293 293 293 294 294 294 295 295 296 296 296 296 296 296 296 296 296 295 295 295 295 295 295 295 294 294 293 292 292 291 290 290 290 290 290 290 289 289 289 288 288 288 287 287 286 286 284 283
283 283 283 283 283 284 284 284 285 285 285 286 286 286 287 287 287 288 288 288 289 289 289 290 290 290 290 290 290 290 291 291 291 291 291 291 291 292 292 292 292 293 293 293 294 294 295 295 295 295 295 295 295 295 294 294 294 294 294 294 294 294 293 293 292 291 290 290 289 289 289 289 289 288 288 288 288 287 287 286 286 285 285 284 282 280
282 282 282 283 283 283 283 284 284 284 285 285 285 285 286 286 286 287 287 288 288 288 289 289 289 289 289 289 289 289 290 290 290 290 290 290 290 290 291 291 291 292 292 292 293 293 294 294 294 294 294 294 294 294 293 293 293 293 293 293 293 293 292 292 291 290 289 288 288 288 288 288 287 287 287 287 286 286 285 285 284 284 283 282 280 278
281 281 282 282 282 282 282 283 283 283 284 284 284 285 285 285 286 286 286 287 287 287 287 288 288 288 288 288 288 288 288 288 288 288 289 289 289 289 290 290 290 291 291 291 292 293 293 293 293 293 293 293 293 292 292 292 292 292 292 292 292 292 291 290 290 289 288 287 287 287 287 287 286 286 286 285 285 284 284 283 283 282 281 279 277 275
280 280 281 281 281 281 282 282 282 283 283 283 283 284 284 284 284 285 285 285 286 286 286 287 287 287 287 287 287 287 287 287 287 287 287 287 288 288 289 289 289 290 290 291 291 292 292 292 292 292 292 292 291 291 291 291 291 291 291 291 291 291 290 289 288 287 287 286 286 286 286 286 285 285 285 284 284 283 283 282 281 280 279 277 275 272
279 279 280 280 280 280 281 281 281 281 282 282 282 282 283 283 283 284 284 284 285 285 285 285 286 286 286 286 286 286 286 286 286 287 287 287 287 287 288 288 288 289 289 290 290 291 291 291 291 291 291 290 290 290 290 290 290 290 290 290 290 289 289 288 287 286 285 285 285 285 285 285 284 284 283 283 282 282 281 280 280 278 277 275 272 269
278 279 279 279 279 279 280 280 280 280 281 281 281 281 282 282 282 283 283 283 284 284 284 284 285 285 285 285 285 285 286 286 286 286 286 286 286 286 287 287 287 288 288 289 289 289 290 290 289 289 289 289 289 289 288 288 289 289 289 289 288 288 287 286 286 285 284 284 284 284 284 283 283 282 282 281 281 280 280 279 278 276 274 272 269 266
277 277 278 278 278 278 279 279 279 279 280 280 280 281 281 281 282 282 282 283 283 283 283 284 284 284 284 285 285 285 285 285 285 285 285 285 285 285 286 286 286 287 287 288 288 288 288 288 288 288 288 288 287 287 287 287 287 288 288 288 287 286 286 285 284 284 283 283 283 282 282 282 282 281 281 280 279 279 278 277 275 274 271 269 266 263
276 277 277 277 277 277 278 278 278 279 279 279 280 280 280 281 281 281 282 282 282 283 283 283 283 284 284 284 284 284 284 284 284 284 284 284 284 284 285 285 286 286 286 286 287 287 287 287 286 286 286 286 286 286 286 286 286 287 286 286 286 285 284 284 283 282 282 282 281 281 281 281 280 280 279 279 278 277 276 275 273 271 269 266 263 260
276 276 276 276 277 277 277 277 278 278 278 279 279 279 280 280 280 281 281 282 282 282 282 283 283 283 283 283 284 284 284 283 283 283 284 284 283 283 284 284 285 285 285 285 285 285 285 285 285 285 285 285 285 285 285 285 285 285 285 285 284 283 283 282 282 281 281 280 280 280 280 279 279 278 278 277 276 275 274 272 270 268 266 263 260 257
275 275 276 276 276 276 277 277 277 277 278 278 279 279 279 280 280 280 281 281 281 282 282 282 282 283 283 283 283 283 283 283 283 283 283 283 283 283 283 283 283 284 284 284 284 284 284 283 283 283 283 283 283 283 283 284 284 284 284 283 283 282 281 281 280 280 279 279 279 279 278 278 277 277 276 275 274 273 271 269 267 265 263 260 258 255
275 275 275 275 276 276 276 276 277 277 277 278 278 278 279 279 280 280 280 281 281 281 282 282 282 282 282 282 283 282 282 282 282 282 282 282 282 282 282 282 282 282 282 282 282 282 282 282 282 282 282 282 282 282 282 282 283 282 282 282 281 280 280 279 279 278 278 278 278 277 277 276 276 275 274 273 272 270 268 267 265 262 260 257 255 252
274 274 275 275 275 275 276 276 276 276 277 277 277 278 278 279 279 279 280 280 280 281 281 281 281 281 282 282 281 281 281 281 281 281 281 281 281 281 281 281 281 281 281 281 280 280 280 280 280 280 280 280 280 281 281 281 281 281 280 280 279 279 278 278 277 277 277 277 276 276 276 275 274 273 273 271 269 268 266 264 262 259 257 255 252 249
274 274 274 274 275 275 275 275 276 276 276 277 277 277 278 278 278 279 279 279 280 280 280 280 281 281 281 281 280 280 280 280 280 280 280 280 280 280 280 280 280 279 279 279 279 278 278 278 279 279 279 279 279 279 279 279 279 279 279 278 278 277 277 276 276 276 275 275 275 274 274 273 272 272 270 269 267 265 263 261 259 256 254 251 249 246
273 273 274 274 274 274 275 275 275 275 276 276 276 277 277 277 278 278 278 279 279 279 279 279 280 280 280 280 279 279 279 279 279 279 279 279 279 278 278 278 278 278 277 277 277 277 277 277 277 277 277 277 277 278 278 278 278 277 277 276 276 275 275 275 274 274 274 274 273 273 272 271 270 269 268 266 264 262 260 258 256 254 251 249 246 243
273 273 273 273 274 274 274 274 274 275 275 275 275 276 276 277 277 277 278 278 278 278 278 278 278 278 278 278 278 278 278 278 278 278 278 277 277 277 277 276 276 276 275 275 275 275 275 275 275 276 276 276 276 276 276 276 276 276 275 275 274 274 273 273 273 273 272 272 271 271 270 269 268 267 265 263 261 259 257 255 253 251 249 246 243 241
272 272 273 273 273 273 273 274 274 274 274 274 275 275 275 276 276 276 277 277 277 277 277 277 277 277 277 277 277 277 277 277 277 277 276 276 276 275 275 274 274 274 273 273 273 273 273 274 274 274 274 274 274 274 275 275 274 274 273 273 272 272 272 271 271 271 270 270 269 269 268 267 265 264 262 260 258 256 255 252 250 248 246 244 241 238
272 272 272 272 272 273 273 273 273 273 273 274 274 274 275 275 275 275 275 276 276 276 276 276 275 275 275 275 276 276 276 276 275 275 275 274 274 273 273 272 272 272 271 271 271 272 272 272 272 272 272 272 273 273 273 273 272 272 271 271 270 270 270 270 270 269 269 268 267 267 266 264 263 261 259 257 256 254 252 250 248 246 244 241 239 237
271 272 272 272 272 272 272 272 272 272 272 273 273 273 274 274 274 274 274 274 274 274 274 274 274 274 274 274 274 274 274 274 274 273 273 273 272 271 271 270 270 270 270 269 269 270 270 270 270 270 270 271 271 271 271 271 270 269 269 269 269 269 268 268 268 267 267 266 265 264 263 262 260 258 256 254 253 251 249 247 246 244 241 239 238 235
271 271 271 271 271 271 271 271 271 271 272 272 272 272 273 273 273 273 272 272 272 272 272 272 272 272 273 273 273 273 272 272 272 271 271 271 270 269 269 268 268 268 268 268 267 267 267 268 268 268 268 269 269 269 269 268 268 267 267 267 267 267 266 266 266 265 265 264 263 262 260 259 257 255 253 252 250 248 247 245 243 242 240 238 236 235
270 270 270 270 270 270 270 270 270 270 271 271 271 271 271 271 271 271 271 270 270 270 270 271 271 271 272 272 271 271 271 270 270 269 269 268 268 267 267 266 266 266 266 265 265 265 265 265 266 266 267 267 267 267 266 266 265 265 265 265 265 265 265 264 264 263 262 261 260 259 258 256 254 252 250 249 247 246 245 243 242 240 238 237 235 234
268 268 268 268 268 268 269 269 269 269 270 270 270 269 269 269 269 269 269 268 268 269 269 269 270 270 270 270 270 269 269 268 268 267 267 266 266 265 265 264 264 264 263 263 263 263 263 263 264 264 265 265 265 264 264 263 263 263 263 263 263 263 263 262 261 261 260 259 258 256 255 253 251 250 248 246 245 244 242 241 240 238 237 236 234 233
267 267 267 267 267 267 267 268 268 268 268 268 268 267 267 267 267 267 267 267 267 267 267 268 269 269 269 268 268 267 267 266 266 265 265 264 263 263 262 262 262 261 261 261 261 261 261 261 262 262 262 262 262 261 261 261 261 261 261 261 261 261 260 259 259 258 257 256 255 254 252 250 249 247 245 244 243 241 240 239 237 236 235 234 233 232
266 265 266 266 266 266 266 266 266 266 266 266 265 265 265 264 264 264 264 265 265 266 266 267 267 267 267 266 266 265 265 264 264 263 262 262 261 261 260 259 259 259 259 258 259 259 259 259 260 260 260 260 259 259 259 259 259 259 259 259 259 258 258 257 257 256 255 254 252 251 249 248 246 245 243 242 241 239 238 236 235 234 232 232 231 230
264 264 264 264 264 265 265 264 264 264 263 263 263 263 262 262 262 262 263 263 264 264 265 265 265 265 264 264 264 263 262 262 261 261 260 259 259 258 257 257 256 256 256 256 256 256 257 257 257 257 257 257 256 256 256 257 257 257 257 257 257 256 255 255 254 253 252 251 250 248 247 245 244 242 241 239 238 237 235 234 233 231 230 230 229 228
263 263 263 263 263 263 262 262 262 261 261 261 260 260 260 260 261 261 261 262 262 263 263 263 263 262 262 262 261 261 260 260 259 258 258 257 256 255 255 254 254 254 254 254 254 254 254 254 254 254 254 254 254 254 254 255 255 255 255 255 254 254 253 252 251 250 249 248 247 246 244 243 241 240 238 237 236 234 233 232 231 230 229 228 228 227
262 262 261 261 261 261 260 260 259 259 259 258 258 258 259 259 259 260 260 260 261 261 261 260 260 260 259 259 259 258 258 257 257 256 255 254 253 252 252 251 251 251 251 251 251 251 251 252 252 252 251 251 251 252 252 253 253 254 253 253 252 251 251 249 248 247 246 245 244 243 242 240 239 237 236 234 233 232 231 230 229 228 228 227 227 226
260 260 260 259 259 258 258 257 257 257 257 257 257 257 257 258 258 258 258 258 258 258 258 258 258 257 257 257 256 256 255 255 254 253 252 251 250 249 249 249 249 248 248 248 248 248 249 249 249 249 249 249 249 250 251 251 251 252 251 251 250 249 248 247 246 245 244 242 242 240 239 238 236 235 234 233 231 230 229 229 228 228 227 227 226 226
258 258 257 257 256 256 256 255 255 255 255 255 255 256 256 256 256 256 256 256 256 256 256 255 255 255 254 254 254 253 253 252 251 250 249 248 247 247 246 246 246 245 245 245 245 246 246 246 246 246 246 247 247 248 249 249 250 249 249 249 248 247 246 245 244 242 241 240 239 238 237 236 235 233 232 231 229 228 227 227 227 227 226 226 226 225
256 256 255 255 254 254 254 254 254 254 254 254 254 254 254 254 254 254 254 254 254 253 253 253 252 252 252 251 251 250 250 249 248 247 246 245 244 244 243 243 243 242 242 242 243 243 243 244 244 244 245 245 246 247 247 248 248 247 247 246 246 245 244 243 241 240 238 237 236 235 235 234 233 232 231 229 228 226 226 225 225 226 226 226 226 225
254 254 253 253 253 253 252 252 252 252 252 253 253 253 252 252 252 252 252 251 251 251 251 250 250 249 249 249 248 247 247 245 244 243 242 241 241 240 240 240 239 239 239 239 240 240 241 241 242 242 243 244 244 245 245 246 245 245 245 244 243 242 241 240 239 237 236 234 233 233 232 232 231 231 230 228 227 225 224 224 224 225 225 225 225 226
253 252 252 252 252 251 251 251 251 251 251 251 251 251 250 250 250 250 249 249 249 248 248 247 247 247 246 246 245 244 243 242 241 240 239 238 238 237 237 237 236 236 236 237 237 238 238 239 239 240 241 242 243 243 243 244 243 243 242 242 241 240 239 238 237 235 234 232 231 230 230 229 229 229 228 227 225 224 223 223 223 223 224 225 225 226
Height
10551 10548 10548 10546 10546 10544 10542 10541 10541 10541 10539 10537 10537 10537 10536 10536 10534 10533 10533 10532 10531 10530 10528 10527 10526 10526 10525 10524 10523 10522 10521 10519 10518 10517 10516 10514 10513 10512 10511 10509 10508 10506 10505 10504 10502 10500 10498 10497 10495 10493 10491 10488 10485 10483 10480 10478 10476 10474 10472 10470 10468 10466 10464 10463 10461 10458 10456 10454 10453 10452 10450 10449 10446 10444 10443 10441 10439 10437 10435 10434 10433 10431 10429 10428 10426 10425
10543 10541 10540 10539 10538 10537 10535 10533 10533 10533 10533 10531 10530 10529 10529 10529 10528 10526 10526 10526 10524 10523 10522 10521 10520 10519 10518 10517 10516 10515 10514 10512 10510 10509 10508 10507 10506 10504 10504 10503 10501 10500 10499 10497 10496 10494 10492 10490 10488 10486 10484 10482 10479 10476 10474 10472 10470 10468 10466 10464 10462 10460 10458 10456 10454 10452 10450 10449 10448 10446 10444 10443 10441 10439 10437 10435 10433 10431 10430 10428 10427 10426 10424 10423 10422 10421
10534 10533 10531 10531 10531 10530 10528 10526 10526 10526 10525 10524 10523 10523 10523 10521 10520 10519 10518 10518 10517 10516 10515 10514 10513 10513 10511 10509 10509 10508 10506 10504 10503 10501 10499 10498 10497 10496 10496 10495 10494 10493 10491 10490 10489 10487 10485 10483 10481 10479 10477 10474 10472 10469 10468 10465 10463 10461 10459 10457 10455 10454 10452 10451 10448 10446 10445 10443 10442 10441 10439 10438 10436 10434 10432 10430 10428 10426 10424 10423 10422 10421 10420 10419 10418 10416
10526 10525 10523 10523 10523 10523 10521 10520 10519 10518 10518 10517 10516 10516 10515 10514 10513 10511 10510 10510 10509 10508 10507 10506 10506 10506 10504 10502 10501 10499 10498 10496 10494 10492 10490 10489 10488 10488 10487 10486 10486 10484 10483 10482 10481 10479 10478 10476 10474 10471 10469 10467 10465 10463 10461 10458 10456 10454 10453 10451 10449 10448 10446 10445 10443 10441 10439 10438 10436 10435 10434 10433 10431 10429 10427 10425 10423 10421 10420 10419 10418 10416 10415 10414 10413 10411
10518 10517 10516 10516 10516 10514 10513 10512 10512 10511 10509 10509 10508 10508 10508 10506 10505 10504 10503 10502 10501 10500 10499 10499 10498 10498 10496 10494 10492 10490 10489 10487 10485 10483 10481 10480 10479 10478 10478 10478 10477 10476 10475 10474 10473 10471 10469 10468 10466 10464 10462 10460 10458 10456 10454 10452 10450 10448 10446 10444 10443 10442 10441 10439 10438 10436 10434 10433 10431 10430 10429 10428 10426 10424 10422 10420 10419 10417 10416 10414 10413 10412 10411 10409 10408 10407
10509 10509 10509 10508 10507 10506 10504 10504 10503 10503 10502 10501 10499 10499 10499 10498 10497 10495 10493 10493 10491 10491 10490 10490 10489 10489 10487 10485 10483 10481 10480 10478 10476 10475 10473 10472 10471 10470 10469 10469 10468 10468 10467 10466 10465 10464 10463 10461 10459 10458 10456 10453 10451 10449 10448 10446 10444 10442 10441 10439 10438 10436 10435 10433 10432 10430 10429 10427 10426 10424 10423 10422 10421 10419 10418 10416 10414 10413 10411 10409 10408 10408 10406 10405 10404 10403
10502 10501 10500 10499 10498 10497 10496 10495 10494 10493 10493 10492 10491 10489 10488 10488 10487 10486 10484 10483 10482 10481 10481 10480 10480 10479 10478 10476 10474 10473 10471 10469 10468 10466 10465 10464 10463 10463 10462 10461 10461 10460 10459 10459 10458 10456 10455 10454 10453 10451 10449 10448 10446 10444 10442 10440 10438 10436 10435 10433 10432 10431 10429 10428 10426 10425 10423 10422 10420 10419 10418 10417 10416 10414 10413 10411 10409 10408 10406 10405 10404 10403 10402 10401 10399 10398
10494 10493 10491 10491 10489 10488 10487 10486 10484 10484 10484 10483 10481 10479 10478 10478 10476 10475 10474 10473 10473 10472 10471 10471 10470 10469 10468 10467 10466 10464 10462 10461 10459 10458 10457 10456 10455 10455 10454 10454 10454 10453 10453 10452 10451 10449 10448 10447 10446 10444 10443 10441 10439 10438 10436 10434 10433 10431 10429 10428 10426 10425 10424 10423 10421 10419 10418 10416 10415 10414 10413 10411 10410 10409 10408 10406 10405 10404 10403 10401 10399 10398 10398 10396 10395 10394
10487 10485 10483 10482 10481 10480 10478 10476 10474 10474 10474 10473 10472 10470 10468 10468 10466 10464 10464 10464 10463 10463 10463 10463 10461 10460 10459 10458 10457 10455 10453 10452 10451 10450 10449 10448 10448 10447 10447 10447 10446 10446 10446 10444 10444 10443 10441 10441 10439 10438 10437 10435 10433 10432 10430 10429 10427 10425 10424 10423 10421 10420 10418 10417 10416 10414 10413 10411 10409 10408 10407 10406 10405 10404 10403 10402 10401 10399 10398 10396 10395 10394 10393 10392 10391 10390
10477 10476 10475 10474 10472 10471 10469 10468 10465 10463 10463 10463 10461 10460 10459 10458 10456 10455 10454 10454 10454 10454 10454 10454 10453 10452 10450 10449 10448 10447 10445 10444 10443 10441 10441 10440 10439 10439 10439 10439 10439 10438 10438 10438 10437 10436 10434 10434 10433 10432 10431 10429 10428 10426 10424 10423 10421 10419 10418 10417 10416 10414 10413 10412 10410 10409 10407 10406 10404 10403 10402 10401 10399 10399 10398 10397 10396 10395 10394 10392 10391 10389 10389 10388 10387 10386
10468 10466 10466 10465 10464 10462 10461 10459 10456 10454 10453 10452 10451 10450 10449 10449 10448 10448 10446 10444 10444 10445 10446 10446 10446 10445 10443 10441 10439 10438 10437 10436 10434 10433 10433 10433 10432 10431 10431 10431 10431 10431 10431 10430 10429 10429 10428 10427 10426 10426 10424 10423 10422 10420 10419 10417 10415 10414 10413 10411 10410 10409 10408 10406 10405 10403 10402 10401 10399 10398 10397 10396 10394 10394 10393 10392 10391 10390 10389 10388 10386 10385 10384 10383 10383 10381
10458 10457 10456 10456 10454 10453 10452 10450 10448 10446 10445 10443 10442 10441 10439 10439 10440 10440 10439 10438 10436 10436 10437 10438 10438 10438 10436 10434 10432 10430 10429 10428 10426 10426 10425 10424 10424 10424 10423 10423 10423 10423 10423 10423 10423 10422 10421 10421 10420 10419 10418 10417 10416 10414 10413 10411 10409 10408 10407 10406 10404 10403 10402 10401 10399 10398 10397 10396 10394 10393 10392 10391 10389 10389 10388 10388 10386 10386 10384 10383 10382 10381 10380 10379 10378 10378
10448 10448 10447 10446 10446 10444 10443 10442 10440 10438 10436 10435 10434 10433 10431 10430 10431 10432 10431 10430 10429 10429 10430 10430 10429 10429 10429 10428 10426 10424 10422 10420 10419 10418 10418 10417 10417 10417 10416 10416 10416 10416 10416 10416 10415 10415 10414 10414 10413 10413 10412 10411 10409 10408 10407 10405 10404 10403 10401 10400 10399 10398 10397 10396 10394 10393 10392 10391 10389 10388 10387 10386 10384 10384 10383 10383 10382 10381 10380 10379 10378 10376 10376 10374 10374 10373
10438 10438 10438 10437 10436 10435 10434 10433 10431 10429 10428 10426 10425 10424 10423 10423 10423 10423 10423 10423 10422 10423 10424 10424 10423 10422 10421 10421 10420 10418 10416 10414 10412 10411 10411 10410 10410 10410 10409 10408 10408 10408 10409 10408 10408 10408 10408 10408 10407 10406 10406 10405 10404 10403 10401 10399 10398 10397 10396 10394 10394 10393 10391 10391 10389 10388 10387 10386 10384 10383 10382 10381 10380 10379 10378 10378 10377 10376 10375 10374 10373 10372 10371 10371 10370 10369
10429 10429 10428 10427 10426 10426 10425 10424 10423 10421 10419 10418 10417 10417 10416 10416 10416 10416 10416 10415 10415 10416 10416 10416 10416 10415 10415 10414 10414 10412 10410 10408 10406 10404 10404 10403 10403 10404 10403 10402 10401 10401 10401 10401 10401 10401 10401 10401 10401 10400 10399 10399 10398 10396 10395 10393 10393 10391 10390 10389 10388 10388 10386 10385 10384 10383 10382 10381 10379 10378 10377 10376 10375 10374 10374 10373 10373 10371 10371 10369 10368 10368 10367 10366 10366 10365
10419 10419 10419 10418 10417 10416 10416 10416 10414 10413 10411 10410 10409 10409 10409 10408 10408 10408 10408 10408 10408 10408 10409 10409 10409 10408 10408 10407 10407 10406 10404 10401 10399 10398 10398 10397 10396 10397 10398 10396 10394 10393 10394 10394 10394 10394 10394 10395 10394 10394 10394 10393 10392 10390 10389 10388 10387 10386 10385 10384 10383 10382 10381 10380 10379 10378 10377 10376 10374 10373 10373 10371 10371 10370 10369 10369 10368 10367 10366 10365 10364 10363 10363 10362 10361 10361
10411 10411 10410 10409 10408 10408 10407 10407 10406 10406 10404 10403 10402 10401 10401 10401 10401 10401 10401 10401 10401 10401 10401 10402 10403 10402 10401 10399 10399 10399 10399 10397 10394 10392 10392 10391 10390 10390 10391 10390 10388 10387 10387 10388 10388 10388 10388 10388 10388 10388 10388 10387 10386 10384 10383 10382 10381 10380 10379 10378 10378 10377 10376 10375 10374 10373 10372 10371 10369 10369 10368 10367 10366 10365 10364 10364 10363 10362 10361 10361 10359 10359 10358 10358 10358 10357
10402 10402 10402 10401 10400 10399 10399 10399 10398 10398 10396 10396 10394 10394 10394 10394 10394 10394 10394 10393 10393 10394 10394 10394 10396 10396 10395 10393 10391 10390 10392 10391 10388 10386 10385 10384 10384 10384 10384 10384 10383 10381 10381 10381 10381 10382 10382 10382 10383 10383 10383 10381 10380 10379 10377 10376 10375 10374 10374 10373 10373 10371 10371 10370 10369 10368 10367 10366 10365 10364 10363 10362 10361 10361 10360 10359 10359 10358 10357 10356 10356 10355 10354 10354 10354 10353
10394 10394 10394 10393 10392 10391 10391 10391 10390 10389 10389 10388 10387 10387 10386 10386 10386 10386 10386 10386 10386 10386 10387 10388 10388 10388 10388 10387 10384 10383 10384 10384 10383 10380 10379 10378 10378 10378 10378 10378 10376 10375 10374 10375 10375 10376 10376 10376 10376 10377 10376 10376 10374 10373 10371 10371 10370 10369 10368 10368 10367 10366 10366 10365 10364 10363 10362 10361 10360 10359 10358 10358 10357 10356 10356 10355 10354 10353 10353 10352 10351 10351 10350 10350 10349 10349
10386 10386 10385 10385 10384 10384 10383 10382 10382 10382 10381 10381 10380 10380 10379 10378 10378 10379 10379 10379 10379 10379 10380 10381 10381 10381 10381 10380 10379 10378 10378 10378 10376 10374 10373 10372 10371 10371 10372 10371 10370 10369 10368 10368 10369 10369 10370 10370 10371 10371 10371 10370 10369 10367 10366 10365 10364 10363 10363 10363 10362 10361 10361 10360 10359 10358 10357 10356 10355 10354 10354 10353 10353 10352 10351 10351 10349 10349 10348 10348 10347 10347 10346 10346 10346 10346
10378 10378 10376 10377 10377 10376 10374 10374 10374 10374 10374 10374 10373 10373 10371 10371 10371 10371 10371 10371 10372 10373 10373 10374 10374 10374 10374 10374 10372 10371 10371 10371 10370 10368 10366 10365 10364 10364 10365 10365 10364 10363 10362 10362 10363 10364 10364 10364 10364 10365 10365 10364 10363 10362 10361 10359 10359 10358 10358 10357 10356 10356 10356 10355 10354 10353 10352 10351 10351 10349 10349 10349 10348 10348 10347 10346 10346 10344 10344 10343 10343 10343 10343 10342 10342 10342
10371 10369 10369 10369 10369 10369 10368 10366 10366 10366 10366 10367 10366 10365 10364 10364 10364 10363 10363 10364 10365 10366 10366 10366 10366 10366 10367 10367 10366 10364 10364 10364 10363 10361 10360 10359 10358 10358 10359 10359 10358 10356 10356 10356 10357 10358 10358 10359 10359 10359 10359 10358 10358 10356 10355 10354 10354 10353 10353 10352 10351 10351 10351 10350 10349 10348 10348 10346 10346 10345 10344 10344 10344 10343 10343 10342 10341 10341 10340 10339 10339 10339 10338 10338 10338 10338
10364 10363 10361 10361 10361 10360 10359 10359 10359 10359 10359 10359 10359 10358 10356 10356 10356 10356 10356 10357 10358 10358 10358 10359 10359 10359 10359 10359 10359 10358 10358 10358 10357 10356 10354 10353 10351 10350 10351 10353 10351 10350 10349 10349 10351 10352 10352 10353 10353 10353 10353 10353 10351 10351 10350 10349 10348 10348 10347 10347 10346 10346 10346 10345 10344 10344 10343 10342 10341 10341 10340 10339 10339 10339 10338 10338 10337 10336 10336 10335 10335 10334 10334 10334 10334 10334
10356 10355 10354 10353 10353 10353 10352 10352 10352 10351 10352 10351 10351 10350 10349 10349 10349 10349 10349 10350 10351 10351 10351 10351 10351 10351 10351 10353 10353 10351 10350 10351 10351 10350 10348 10346 10344 10344 10344 10346 10345 10344 10343 10344 10345 10346 10346 10346 10346 10346 10346 10346 10346 10345 10344 10344 10343 10343 10342 10342 10341 10341 10341 10340 10339 10339 10338 10337 10336 10336 10336 10335 10335 10334 10334 10333 10333 10332 10331 10331 10331 10331 10331 10331 10331 10331
10347 10347 10346 10346 10345 10345 10344 10344 10344 10344 10344 10344 10343 10343 10342 10342 10342 10342 10343 10343 10344 10344 10344 10344 10344 10344 10344 10345 10345 10344 10343 10343 10344 10343 10342 10340 10338 10338 10338 10339 10339 10338 10336 10338 10339 10340 10339 10339 10339 10340 10341 10340 10339 10339 10339 10338 10338 10338 10337 10336 10336 10336 10335 10335 10334 10334 10333 10333 10332 10331 10331 10331 10330 10330 10329 10329 10328 10328 10328 10327 10327 10327 10327 10327 10327 10328
10338 10338 10338 10338 10338 10337 10337 10337 10337 10337 10337 10336 10336 10335 10335 10335 10335 10335 10335 10335 10336 10336 10337 10336 10336 10336 10336 10338 10337 10336 10335 10336 10336 10336 10336 10334 10332 10331 10331 10332 10333 10332 10331 10331 10333 10334 10334 10333 10333 10334 10334 10334 10334 10333 10333 10333 10333 10333 10332 10331 10331 10331 10330 10330 10329 10329 10328 10328 10327 10327 10326 10326 10326 10326 10325 10324 10324 10324 10323 10323 10323 10323 10323 10323 10324 10324
10329 10330 10330 10329 10329 10329 10329 10329 10329 10329 10329 10328 10328 10328 10328 10328 10328 10328 10326 10326 10327 10328 10329 10328 10328 10328 10329 10329 10329 10329 10328 10329 10329 10329 10329 10328 10326 10324 10324 10326 10326 10326 10325 10325 10326 10327 10328 10327 10327 10327 10328 10328 10328 10328 10328 10328 10328 10327 10327 10326 10326 10326 10325 10325 10324 10324 10323 10323 10323 10323 10322 10322 10321 10321 10321 10320 10320 10319 10319 10319 10319 10319 10319 10320 10320 10321
10321 10321 10321 10321 10321 10321 10321 10321 10321 10321 10321 10320 10320 10320 10320 10321 10321 10320 10318 10318 10319 10321 10321 10320 10321 10321 10321 10321 10321 10321 10321 10321 10321 10322 10323 10322 10320 10318 10318 10319 10320 10320 10319 10319 10320 10321 10321 10321 10321 10321 10321 10322 10322 10322 10322 10322 10322 10322 10322 10321 10321 10321 10321 10320 10319 10319 10319 10318 10318 10318 10318 10317 10317 10317 10316 10316 10316 10316 10316 10316 10316 10316 10316 10316 10317 10317
10311 10312 10312 10312 10312 10312 10312 10312 10312 10312 10312 10312 10312 10312 10312 10313 10313 10312 10310 10309 10311 10312 10311 10311 10312 10313 10314 10314 10313 10313 10314 10314 10314 10315 10316 10316 10313 10311 10312 10313 10313 10313 10314 10314 10314 10314 10314 10314 10314 10315 10315 10316 10316 10316 10316 10316 10317 10317 10317 10316 10316 10316 10316 10315 10315 10314 10314 10314 10313 10313 10313 10313 10313 10313 10312 10312 10312 10312 10312 10312 10312 10313 10313 10313 10313 10314
10301 10303 10303 10303 10303 10303 10304 10304 10303 10303 10303 10304 10304 10304 10304 10304 10304 10304 10303 10303 10303 10303 10303 10303 10303 10304 10306 10306 10306 10306 10305 10305 10307 10309 10309 10308 10306 10305 10306 10307 10307 10307 10308 10308 10308 10308 10308 10308 10309 10309 10309 10310 10310 10311 10311 10311 10311 10311 10311 10311 10311 10311 10311 10311 10310 10310 10309 10309 10309 10309 10309 10308 10308 10308 10308 10308 10308 10308 10308 10308 10309 10309 10309 10309 10310 10311
10291 10292 10293 10293 10293 10294 10294 10295 10295 10294 10295 10295 10295 10296 10296 10296 10296 10296 10295 10295 10295 10295 10294 10294 10294 10296 10298 10299 10299 10298 10296 10297 10299 10301 10303 10302 10299 10299 10300 10301 10300 10300 10301 10302 10302 10301 10301 10301 10302 10303 10304 10304 10304 10305 10306 10306 10306 10306 10306 10306 10306 10306 10306 10306 10306 10305 10305 10304 10304 10304 10304 10304 10304 10304 10304 10304 10304 10304 10304 10305 10305 10306 10306 10306 10307 10308
10280 10282 10282 10283 10283 10284 10284 10285 10286 10286 10286 10286 10286 10287 10288 10288 10288 10287 10287 10287 10286 10286 10286 10286 10286 10288 10290 10291 10292 10291 10289 10289 10291 10293 10296 10295 10294 10293 10294 10294 10294 10294 10294 10296 10296 10296 10295 10295 10296 10297 10298 10299 10299 10299 10300 10301 10301 10301 10301 10301 10301 10301 10301 10301 10301 10301 10300 10300 10300 10300 10300 10299 10300 10300 10300 10300 10301 10301 10301 10301 10302 10302 10303 10303 10304 10304
10270 10271 10272 10273 10273 10274 10274 10275 10276 10276 10276 10277 10278 10278 10278 10279 10279 10279 10279 10278 10278 10278 10278 10278 10279 10280 10281 10283 10284 10284 10283 10283 10283 10286 10288 10288 10288 10287 10287 10288 10288 10288 10288 10289 10289 10289 10289 10289 10290 10291 10293 10293 10294 10294 10295 10296 10296 10296 10297 10297 10296 10296 10296 10296 10296 10296 10296 10296 10296 10296 10296 10296 10296 10296 10296 10296 10297 10297 10298 10298 10298 10299 10299 10300 10301 10301
10259 10261 10261 10263 10263 10264 10264 10265 10266 10266 10267 10268 10268 10269 10269 10270 10270 10270 10270 10270 10270 10269 10269 10270 10271 10272 10274 10275 10276 10276 10276 10276 10277 10279 10281 10281 10281 10280 10281 10281 10281 10281 10282 10283 10283 10284 10284 10284 10284 10286 10287 10288 10288 10289 10290 10291 10291 10291 10292 10292 10292 10291 10291 10292 10291 10291 10291 10291 10291 10291 10291 10291 10292 10292 10293 10293 10293 10294 10294 10294 10295 10296 10296 10297 10298 10298
10249 10251 10251 10252 10253 10253 10254 10254 10255 10256 10258 10258 10259 10259 10260 10261 10261 10262 10262 10262 10261 10261 10261 10262 10263 10264 10266 10267 10268 10268 10268 10268 10269 10272 10274 10274 10274 10274 10274 10274 10274 10275 10276 10276 10277 10278 10278 10278 10279 10281 10281 10282 10283 10284 10285 10286 10286 10287 10287 10287 10287 10287 10287 10287 10287 10287 10287 10287 10287 10287 10288 10288 10288 10288 10289 10289 10289 10290 10291 10291 10292 10293 10293 10294 10294 10296
10239 10240 10241 10241 10243 10243 10243 10244 10244 10246 10247 10248 10249 10250 10251 10253 10253 10253 10254 10253 10253 10253 10253 10254 10255 10256 10259 10260 10261 10261 10260 10261 10263 10264 10266 10267 10268 10268 10268 10267 10268 10269 10270 10270 10271 10272 10273 10273 10274 10275 10276 10277 10278 10278 10279 10281 10281 10282 10282 10282 10282 10283 10283 10283 10283 10283 10283 10283 10283 10283 10283 10284 10284 10284 10285 10286 10286 10287 10288 10288 10289 10289 10290 10291 10292 10293
10229 10230 10230 10231 10231 10232 10232 10232 10234 10235 10237 10238 10239 10241 10243 10244 10244 10244 10245 10245 10245 10245 10244 10245 10246 10248 10251 10253 10254 10254 10254 10254 10256 10257 10259 10260 10261 10261 10261 10261 10261 10263 10264 10264 10265 10266 10267 10268 10269 10270 10271 10272 10273 10273 10274 10276 10277 10277 10277 10277 10278 10278 10278 10278 10278 10278 10278 10278 10279 10279 10279 10280 10281 10281 10281 10282 10283 10283 10284 10285 10286 10286 10288 10288 10289 10290
10219 10219 10219 10219 10220 10221 10221 10222 10223 10224 10227 10229 10231 10232 10234 10235 10236 10236 10236 10236 10236 10236 10236 10236 10238 10241 10244 10246 10247 10247 10248 10248 10249 10250 10252 10253 10254 10254 10254 10254 10255 10256 10258 10259 10260 10261 10262 10263 10264 10264 10266 10266 10268 10269 10270 10271 10271 10272 10272 10273 10273 10273 10273 10274 10274 10274 10274 10274 10275 10275 10276 10276 10277 10278 10278 10279 10279 10280 10281 10282 10283 10283 10284 10285 10286 10288
10209 10209 10209 10208 10208 10209 10210 10211 10212 10215 10217 10221 10222 10224 10225 10226 10226 10226 10227 10227 10227 10227 10227 10228 10231 10233 10236 10238 10239 10239 10240 10241 10242 10243 10245 10246 10247 10248 10248 10249 10249 10250 10252 10253 10254 10256 10256 10257 10258 10259 10261 10262 10263 10264 10266 10266 10266 10267 10268 10268 10268 10269 10269 10269 10269 10270 10270 10271 10271 10271 10272 10273 10273 10274 10275 10276 10276 10277 10278 10279 10279 10281 10281 10283 10284 10284
10197 10197 10197 10197 10197 10198 10199 10201 10203 10206 10209 10212 10214 10214 10216 10216 10216 10217 10217 10218 10219 10219 10219 10221 10224 10227 10229 10231 10231 10232 10233 10234 10235 10237 10238 10239 10240 10241 10241 10243 10243 10244 10246 10248 10249 10250 10251 10252 10253 10254 10256 10258 10259 10259 10261 10261 10262 10263 10263 10263 10264 10264 10265 10265 10266 10266 10266 10266 10267 10268 10268 10269 10270 10271 10271 10273 10273 10274 10275 10276 10277 10278 10279 10280 10281 10282
10186 10186 10186 10186 10186 10188 10190 10192 10195 10198 10201 10203 10204 10204 10205 10206 10207 10207 10208 10209 10209 10211 10212 10216 10218 10220 10221 10223 10224 10225 10226 10227 10228 10230 10231 10232 10233 10234 10235 10236 10237 10239 10241 10242 10243 10244 10246 10247 10248 10250 10251 10253 10254 10255 10256 10256 10257 10258 10258 10259 10259 10260 10261 10261 10261 10262 10262 10263 10263 10264 10265 10266 10266 10268 10268 10269 10270 10271 10272 10273 10274 10275 10276 10278 10278 10279
10175 10175 10174 10176 10177 10179 10181 10184 10187 10189 10191 10193 10194 10194 10194 10196 10197 10198 10199 10199 10201 10202 10206 10209 10211 10212 10214 10215 10216 10217 10219 10221 10222 10223 10224 10226 10227 10228 10229 10231 10232 10233 10235 10237 10238 10239 10241 10243 10244 10245 10247 10248 10249 10251 10251 10252 10253 10253 10254 10254 10255 10256 10256 10257 10257 10258 10258 10259 10259 10261 10261 10263 10263 10264 10265 10266 10267 10268 10269 10270 10271 10273 10274 10274 10276 10277
10163 10164 10165 10166 10168 10171 10172 10175 10177 10179 10181 10182 10183 10183 10184 10186 10187 10189 10190 10191 10192 10196 10199 10202 10204 10205 10206 10207 10209 10211 10212 10214 10216 10217 10218 10219 10221 10222 10223 10224 10226 10228 10230 10231 10233 10234 10236 10237 10239 10241 10243 10244 10245 10246 10246 10247 10248 10249 10249 10250 10251 10252 10252 10253 10253 10254 10254 10255 10256 10257 10258 10259 10260 10261 10262 10263 10264 10265 10266 10268 10269 10270 10271 10273 10273 10274
10152 10154 10156 10157 10159 10162 10164 10166 10167 10169 10170 10171 10172 10173 10175 10177 10179 10181 10182 10184 10187 10190 10194 10195 10197 10199 10200 10201 10202 10204 10206 10207 10209 10211 10212 10213 10214 10216 10217 10219 10221 10222 10225 10226 10228 10229 10231 10233 10235 10236 10238 10239 10240 10241 10241 10242 10243 10244 10245 10246 10247 10248 10248 10249 10249 10251 10251 10252 10253 10254 10254 10256 10257 10258 10259 10260 10261 10263 10264 10264 10266 10267 10268 10269 10271 10273
10143 10145 10147 10149 10151 10152 10154 10156 10157 10159 10160 10161 10162 10164 10166 10168 10171 10173 10175 10177 10181 10183 10185 10187 10189 10192 10193 10194 10196 10197 10199 10201 10202 10204 10206 10207 10209 10211 10212 10214 10216 10218 10220 10222 10223 10225 10227 10229 10231 10232 10234 10235 10236 10236 10237 10237 10239 10240 10241 10242 10243 10244 10244 10245 10246 10247 10248 10248 10249 10250 10251 10253 10254 10255 10256 10257 10258 10259 10261 10262 10263 10264 10266 10267 10268 10269
10134 10136 10137 10139 10141 10142 10144 10146 10147 10149 10151 10152 10154 10156 10158 10161 10163 10166 10169 10171 10174 10176 10177 10180 10182 10184 10186 10187 10189 10191 10193 10194 10196 10197 10199 10201 10203 10205 10207 10209 10211 10213 10216 10217 10219 10221 10223 10224 10226 10227 10229 10230 10231 10231 10232 10234 10235 10236 10237 10237 10239 10240 10241 10241 10243 10243 10244 10245 10246 10247 10248 10249 10251 10252 10253 10254 10255 10256 10258 10259 10261 10262 10263 10264 10266 10267
10125 10127 10128 10130 10132 10133 10134 10136 10138 10140 10142 10144 10146 10148 10151 10154 10157 10160 10162 10164 10167 10169 10171 10174 10176 10177 10179 10181 10183 10185 10187 10188 10190 10192 10194 10196 10198 10200 10202 10204 10207 10209 10211 10213 10215 10217 10219 10221 10222 10224 10224 10226 10226 10227 10228 10229 10231 10232 10232 10234 10235 10236 10237 10237 10239 10240 10241 10242 10243 10244 10245 10246 10248 10249 10250 10251 10253 10254 10255 10256 10258 10259 10261 10262 10263 10264
10116 10117 10119 10121 10122 10124 10126 10127 10130 10132 10134 10136 10139 10142 10145 10148 10151 10153 10155 10157 10160 10162 10165 10167 10169 10171 10173 10175 10177 10179 10181 10182 10184 10186 10189 10191 10193 10195 10197 10200 10202 10204 10206 10209 10211 10212 10214 10216 10217 10219 10220 10221 10222 10223 10224 10226 10227 10228 10229 10230 10231 10232 10233 10234 10236 10237 10237 10239 10240 10241 10242 10243 10244 10246 10247 10248 10249 10251 10253 10254 10255 10256 10258 10259 10261 10262
10107 10109 10111 10112 10114 10116 10117 10120 10122 10125 10127 10130 10132 10136 10139 10142 10144 10146 10148 10151 10154 10156 10159 10161 10162 10165 10167 10169 10171 10173 10176 10177 10179 10182 10184 10186 10188 10191 10193 10195 10197 10200 10202 10204 10206 10208 10210 10212 10213 10214 10216 10217 10218 10219 10220 10222 10223 10224 10225 10226 10227 10229 10230 10231 10232 10234 10234 10236 10237 10238 10239 10240 10241 10243 10244 10246 10247 10248 10249 10251 10253 10254 10255 10256 10258 10259
10099 10101 10102 10104 10106 10109 10111 10113 10116 10119 10121 10124 10127 10130 10132 10135 10137 10140 10142 10145 10148 10151 10152 10154 10157 10159 10161 10163 10166 10168 10170 10172 10175 10177 10179 10181 10184 10186 10189 10191 10193 10196 10198 10200 10202 10204 10206 10207 10209 10210 10212 10213 10214 10215 10216 10217 10219 10221 10222 10222 10224 10225 10226 10227 10229 10230 10231 10232 10234 10235 10236 10237 10239 10240 10241 10243 10244 10246 10247 10248 10249 10251 10253 10254 10255 10256
10092 10094 10096 10097 10100 10102 10105 10107 10111 10113 10116 10119 10121 10123 10126 10129 10131 10134 10137 10140 10142 10145 10147 10149 10151 10154 10156 10158 10161 10162 10165 10167 10170 10172 10174 10177 10179 10182 10184 10187 10189 10191 10194 10196 10197 10199 10202 10203 10204 10206 10207 10209 10210 10211 10212 10214 10216 10217 10218 10219 10221 10222 10223 10224 10226 10227 10228 10229 10231 10232 10233 10234 10236 10237 10239 10240 10241 10243 10244 10246 10247 10248 10249 10251 10253 10254